Время (UTC), дата Ветер
(°,м/с) 
Видим.   Явления Облачность Т
(°С)
Тd
(°С)
f(%) Тe
(°С)
Pmin
(гПа)
dP
(гПа)
Po
(мм)
O2
(г/м3)
Тmin Tmax R s Состояние
почвы
00 01.09.11 тихо ()   10 км    6/0 средняя, верхняя 
[Ac trans|Ci fib]
+20.9 +16.2 74 +32  1008.6  0.3  750  277           
03 01.09.11 тихо ()   4000 м  дымка  8/3 600 м кучево-дожд., средняя, верхняя 
[Cb calv|Ac trans|Ci fib]
+19.7 +17.6 88 +33  1008.9  0.2  750  278           
06 01.09.11 230 (ЮЗ) 10 км  в посл. час ливневой дождь  9/4 600 м кучево-дожд., средняя 
[Cb calv|Ac trans]
+21 +16.4 75 +32  1009.9  1.1  751  277  +18.8         
09 01.09.11 190 (Ю) 10 км  {ливн. осадки}  8/1 600 м кучево-дожд., средняя 
[Cb calv|Ac trans]
+25.2 +15.6 55 +35  1009.6  -0.2  751  274           
12 01.09.11 130 (ЮВ) 10 км  {ливн. осадки}  6/3 1000 м кучево-дожд., средняя 
[Cb calv|Ac trans]
+28.2 +11.8 36 +32  1008.3  -1.2  750  272           
15 01.09.11 100 (В) 10 км    8/1 1000 м кучево-дожд., средняя, верхняя 
[Cb calv|Ac trans|Ci fib]
+24.5 +16.2 60 +35  1008.2  -0.2  750  274           
18 01.09.11 060 (СВ) 10 км    6/1 1000 м кучево-дожд., средняя, верхняя 
[Cb calv|Ac trans|Ci fib]
+20.5 +16.5 78 +32  1009  0.6  750  278    +28.7  0.0     
21 01.09.11 010 (С) 10 км    9/0 средняя, верхняя 
[Ac trans|Ci fib]
+20.7 +16.3 76 +32  1009.2  0.2  750  278           
00 02.09.11 тихо ()   4000 м  дымка  8/8 150 м 
[St]
+18.7 +17 90 +31  1008.6  -0.7  750  279           
03 02.09.11 220 (ЮЗ) 0100 м  туман  4/0 средняя, верхняя 
[Ac trans|Ci fib]
+16.6 +15.5 93 +27  1008.7  750  282           
06 02.09.11 220 (ЮЗ) 4000 м  в посл. час туман  3/3 100 м 
[St]
+21.1 +18.6 86 +37  1009.2  0.6  750  276  +16.3         
09 02.09.11 230 (ЮЗ) 10 км    5/3 600 м верхняя 
[Cu hum|Ci fib]
+25.5 +18.6 66 +41  1008.5  -0.7  750  272           
12 02.09.11 260 (З) 10 км    4/1 1000 м верхняя 
[Cu med, cong|Ci fib]
+27.6 +15.6 48 +37  1007.6  -0.8  749  271           
15 02.09.11 260 (З) 10 км    5/3 1000 м кучево-дожд., средняя 
[Cb calv|Ac trans]
+24.7 +14.6 53 +33  1008  0.3  750  274           
18 02.09.11 290 (З) 10 км    4/0 средняя 
[Ac trans]
+22.2 +14.7 62 +30  1008.8  0.7  750  277    +28       
21 02.09.11 350 (С) 10 км    3/0 средняя 
[Ac trans]
+19.3 +9.4 53 +20  1010.2  1.3  751  281           
00 03.09.11 330 (СЗ) 10 км    5/0 средняя 
[Ac trans]
+17.2 +6.6 50 +18  1011.1  0.8  752  284           
03 03.09.11 340 (С) 10 км    6/0 средняя 
[Ac trans]
+15.5 +6.2 54 +16  1012.4  1.2  753  286           
06 03.09.11 350 (С) 10 км    4/0 средняя, верхняя 
[Ac trans|Ci fib]
+20.8 +7.2 41 +21  1013.4  1.2  754  281  +15.5         
09 03.09.11 010 (С) 10 км    3/0 верхняя 
[Ci fib]
+24.9 +2.4 23 +25  1013.1  -0.2  753  278           
12 03.09.11 340 (С) 10 км    3/0 верхняя 
[Ci fib]
+25.9 +3.3 23 +26  1012.8  -0.3  753  277           
15 03.09.11 050 (СВ) 10 км    3/1 1000 м средняя 
[Cu hum|Ac trans]
+24.6 +6 30 +25  1012.8  -0.1  753  277           
18 03.09.11 290 (З) 10 км    3/0 средняя 
[Ac trans]
+20.8 +11.5 55 +24  1013.9  754  280    +26.3       
21 03.09.11 020 (С) 10 км    ясно 
+20.3 +7.4 43 +20  1013.9  754  282           
00 04.09.11 тихо ()   10 км    4/0 средняя 
[Ac trans]
+15.2 +7.8 61 +15  1014.4  0.3  754  287           
03 04.09.11 030 (СВ) 10 км    9/5 630 м средняя 
[Sc|Ac trans]
+17.7 +6.9 49 +19  1014.7  0.4  754  284           
06 04.09.11 010 (С) 10 км  {ливн. осадки}  8/1 1000 м кучево-дожд., средняя 
[Cb calv|Ac trans]
+19.4 +8.8 50 +20  1015.5  0.8  755  283  +14.3         
09 04.09.11 200 (Ю) 10 км    9/3 1000 м кучево-дожд., средняя 
[Cb calv|Ac trans]
+21.5 +9.5 46 +22  1015.7  0.3  755  280           
12 04.09.11 250 (З) 10 км  слаб. ливневой дождь  10/3 1000 м кучево-дожд., средняя 
[Cb calv|Ac und]
+20.8 +9.2 47 +21  1015.6  -0.2  755  281           
15 04.09.11 230 (ЮЗ) 10 км  слаб. ливневой дождь  10/4 1000 м кучево-дожд., средняя 
[Cb calv|Ac und]
+17.7 +13.1 74 +23  1016.4  0.7  756  283           
18 04.09.11 290 (З) 4000 м  слаб. ливневой дождь  10/6 1000 м кучево-дожд., средняя 
[Cb calv|Ac und]
+15.2 +11.9 81 +19  1017.9  1.4  757  287    +22.2  0.0     
21 04.09.11 320 (СЗ) 4000 м  слаб. ливневой дождь  10/6 1000 м кучево-дожд., средняя 
[Cb calv|Ac und]
+14.6 +12.6 88 +21  1017.3  -0.6  756  287           
00 05.09.11 040 (СВ) 4000 м  дымка{ливн. осадки}  9/4 1000 м кучево-дожд., средняя 
[Cb calv|Ac trans]
+14.4 +12.6 89 +20  1017.4  0.1  756  287           
03 05.09.11 тихо ()   4000 м  местами туман поземный{гроза, ливн. осадки}  9/4 600 м кучево-дожд., средняя 
[Cb calv|Ac trans]
+13.6 +12.4 92 +18  1017.5  0.1  756  288           
06 05.09.11 220 (ЮЗ) 10 км  {гроза, ливн. осадки}  3/0 средняя 
[Ac trans]
+18 +11.5 66 +22  1017.7  0.3  757  284  +13.3       
09 05.09.11 320 (СЗ) 10 км    5/5 1200 м 
[Cu med, cong]
+21.8 +10.4 48 +23  1017.2  -0.4  756  280           
12 05.09.11 120 (ЮВ) 10 км  гроза без осадков{ливн. осадки}  9/8 1080 м кучево-дожд., верхняя 
[Cb cap|Ci ing]
+18 +10.1 60 +20  1017.7  0.4  757  284           
15 05.09.11 120 (ЮВ) 10 км  {гроза}  6/4 1000 м кучево-дожд., средняя, верхняя 
[Cb calv|Ac trans|Ci fib]
+18.6 +10.7 60 +21  1017.6  -0.1  757  283           
18 05.09.11 260 (З) 10 км  гроза без осадков{ливн. осадки}  9/5 300 м кучево-дожд., средняя 
[Cb cap|Ac trans]
+15.2 +10.7 74 +17  1018.4  0.8  757  287    +23.3  0.6     
21 05.09.11 280 (З) 10 км  {гроза}  5/0 средняя 
[Ac trans]
+14.6 +9.6 72 +15  1018.1  -0.3  757  288           
00 06.09.11 270 (З) 10 км  {гроза}  3/0 средняя 
[Ac trans]
+11.3 +8.1 81 +12  1018  -0.2  757  291           
03 06.09.11 330 (СЗ) 10 км    6/4 300 м средняя, верхняя 
[Sc|Ac trans|Ci fib]
+13.1 +8.7 75 +13  1017.5  -0.5  756  289           
06 06.09.11 360 (С) 10 км    4/0 средняя 
[Ac trans]
+17.5 +9.8 61 +19  1017.8  0.5  757  285  +10.7       
09 06.09.11 010 (С) 10 км    9/3 600 м средняя 
[Cu hum|Ac trans]
+20.2 +7.3 43 +20  1017.1  -0.6  756  283           
12 06.09.11 340 (С) 10 км    6/6 1000 м 
[Cu hum]
+21 +5.1 35 +21  1016.2  -0.9  756  282           
15 06.09.11 360 (С) 10 км    6/0 средняя 
[Ac trans]
+19.4 +7 44 +20  1016.4  0.1  756  283           
18 06.09.11 350 (С) 10 км    ясно 
+15.4 +6.1 54 +16  1016.9  0.4  756  287    +21.2       
21 06.09.11 310 (СЗ) 10 км    ясно 
+11.7 +6.8 72 +12  1016.6  -0.4  756  291           
00 07.09.11 320 (СЗ) 10 км    ясно 
+11.8 +6.3 69 +12  1015.8  -0.8  755  291           
03 07.09.11 320 (СЗ) 10 км    3/0 средняя 
[Ac trans]
+10.9 +6 72 +11  1015.1  -0.7  755  291           
06 07.09.11 280 (З) 10 км    3/0 средняя 
[Ac trans]
+17.7 +6.6 48 +18  1014.3  -0.6  754  284  +9.7         
09 07.09.11 280 (З) 10 км    5/3 1000 м средняя, верхняя 
[Cu hum|Ac trans|Ci fib]
+20.6 +5.9 38 +21  1012.8  -1.4  753  281           
12 07.09.11 250 (З) 10 км    6/3 1000 м средняя, верхняя 
[Cu hum|Ac trans|Ci fib]
+22.7 +5.7 33 +23  1010.3  -2.3  751  279           
15 07.09.11 260 (З) 10 км    4/0 средняя, верхняя 
[Ac trans|Ci fib]
+21.6 +7.1 39 +22  1009  -1.3  750  279           
18 07.09.11 260 (З) 10 км    4/0 верхняя 
[Ci fib]
+19.2 +12.9 67 +25  1008.8  -0.3  750  280    +23.1       
21 07.09.11 230 (ЮЗ) 10 км    ясно 
+15.7 +11 74 +19  1007.8  -1.1  749  283           
00 08.09.11 230 (ЮЗ) 10 км    1/0 средняя 
[Ac trans]
+17 +14.2 84 +24  1006.3  -1.4  748  281           
03 08.09.11 250 (З) 10 км  {ливн. осадки}  8/1 1000 м кучево-дожд., средняя 
[Cb calv|Ac trans]
+16.5 +14.4 87 +25  1005.7  -0.6  748  281           
06 08.09.11 260 (З) 10 км  слаб. ливневой дождь  9/3 1000 м кучево-дожд., средняя 
[Cb calv|Ac trans]
+19.5 +14.3 72 +28  1006.1  0.4  748  278  +15.7    0.0     
09 08.09.11 250 (З) 10 км  в посл. час ливневой дождь  9/4 600 м кучево-дожд., средняя 
[Cb calv|Ac trans]
+22.2 +15.2 65 +31  1005.3  -0.7  748  275           
12 08.09.11 260 (З) 7{15}  10 км  слаб. ливневой дождь  9/4 600 м кучево-дожд., средняя 
[Cb calv|Ac trans]
+19.8 +16 79 +31  1005  -0.4  747  277           
15 08.09.11 260 (З) 10 км  {ливн. осадки}  9/4 600 м кучево-дожд., средняя 
[Cb calv|Ac trans]
+21 +15.7 72 +31  1004.4  -0.6  747  276           
18 08.09.11 230 (ЮЗ) 10 км  {ливн. осадки}  9/0 средняя, верхняя 
[Ac trans|Ci fib]
+20 +15.5 75 +30  1004.6  0.2  747  277    +22.9  0.3     
21 08.09.11 250 (З) 10 км  слаб. ливневой дождь  10/3 600 м кучево-дожд., средняя 
[Cb calv|Ac und]
+19 +15.3 79 +28  1003.7  -0.9  746  278           
00 09.09.11 240 (ЮЗ) 10 км  слаб. ливневой дождь  10/5 200 м кучево-дожд., средняя 
[Cb calv|Ac und]
+17.3 +14.7 85 +25  1002.4  -1.3  745  279           
03 09.09.11 230 (ЮЗ) 10 км  {ливн. осадки}  9/5 800 м кучево-дожд., средняя 
[Cb calv|Ac trans]
+16.2 +14.8 91 +25  1002.3  -0.1  745  280           
06 09.09.11 250 (З) 4000 м  ливневой дождь{гроза}  10/8 800 м кучево-дожд., средняя 
[Cb calv|Ac und]
+15.5 +14.2 92 +22  1002.3  745  281  +15.5       
09 09.09.11 210 (ЮЗ) 3000 м  слаб. ливневой дождь{гроза}  10/8 800 м кучево-дожд., средняя 
[Cb calv|Ac und]
+15.8 +14.9 94 +26  1001.3  -1  744  280           
12 09.09.11 260 (З) 4000 м  слаб. ливневой дождь{гроза}  10/8 800 м кучево-дожд., средняя 
[Cb calv|Ac und]
+14.4 +12.5 88 +20  1001.6  0.2  745  283           
15 09.09.11 260 (З) 10 км  {ливн. осадки}  9/6 800 м кучево-дожд., средняя 
[Cb calv|Ac trans]
+14.1 +12.1 88 +18  1002.2  0.7  745  283           
18 09.09.11 260 (З) 10 км  {ливн. осадки}  6/3 300 м средняя 
[Sc|Ac trans]
+13.3 +11.1 87 +17  1004.2  747  285    +17.4  52     
21 09.09.11 240 (ЮЗ) 4000 м  дымка  4/1 300 м средняя 
[Sc|Ac trans]
+13.2 +12 92 +17  1005.3  1.1  747  285           
00 10.09.11 270 (З) 10 км    6/0 средняя 
[Ac trans]
+12.4 +9.7 84 +13  1006.7  1.3  748  287           
03 10.09.11 260 (З) 10 км    4/0 средняя 
[Ac trans]
+11.6 +9.7 88 +12  1008.4  1.7  750  288           
06 10.09.11 260 (З) 10 км    4/4 600 м 
[Cu hum]
+14.6 +10.8 78 +16  1010.2  1.9  751  285  +11.4         
09 10.09.11 260 (З) 10 км    5/5 900 м 
[Cu med, cong]
+17.9 +10.3 61 +20  1011.2  752  282           
12 10.09.11 260 (З) 10 км    6/6 900 м 
[Cu med, cong]
+18.3 +9.4 56 +18  1012.3  1.1  753  283           
15 10.09.11 250 (З) 10 км  в посл. час ливневой дождь  8/4 1000 м кучево-дожд., средняя 
[Cb calv|Ac trans]
+17.4 +10.7 65 +19  1012.8  0.5  753  283           
18 10.09.11 280 (З) 10 км  гроза, ливневой дождь  9/5 1000 м кучево-дожд., средняя 
[Cb cap|Ac trans]
+15.3 +7.8 61 +16  1014.7  1.8  754  287    +18.8  0.0     
21 10.09.11 260 (З) 10 км  {гроза, ливн. осадки}  4/0 средняя 
[Ac trans]
+12.3 +10.2 87 +15  1015.2  0.4  755  289           
00 11.09.11 270 (З) 10 км  {гроза, ливн. осадки}  4/0 средняя 
[Ac trans]
+13 +9 77 +13  1015  -0.1  755  289           
03 11.09.11 250 (З) 10 км    3/0 средняя 
[Ac trans]
+11.1 +9.5 90 +11  1015.1  755  290           
06 11.09.11 250 (З) 10 км    4/0 средняя 
[Ac trans]
+16.8 +10.3 66 +18  1014.9  755  285  +10.7    0.5     
09 11.09.11 260 (З) 10 км    8/5 1200 м средняя 
[Cu med, cong|Ac trans]
+19.5 +7.4 45 +20  1013.7  -1.1  754  282           
12 11.09.11 270 (З) 10 км    9/6 1200 м кучево-дожд., средняя 
[Cb calv|Ac trans]
+19.6 +8.9 50 +20  1012.2  -1.5  753  281           
15 11.09.11 260 (З) 10 км    4/1 1000 м средняя 
[Cu hum|Ac trans]
+18.8 +9 53 +19  1012  -0.2  752  282           
18 11.09.11 270 (З) 10 км    3/0 средняя 
[Ac trans]
+16.3 +10.2 67 +18  1013.1  753  285    +20.9       
21 11.09.11 260 (З) 10 км    ясно 
+14 +8.3 69 +15  1012.8  -0.4  753  287           
00 12.09.11 280 (З) 10 км    ясно 
+13.1 +6.6 65 +14  1012.6  -0.2  753  288           
03 12.09.11 280 (З) 10 км    3/0 средняя 
[Ac trans]
+11.1 +6.5 73 +11  1013  0.3  753  290           
06 12.09.11 280 (З) 10 км    3/0 средняя 
[Ac trans]
+16.1 +8.1 59 +16  1013.5  0.7  754  285  +9.8         
09 12.09.11 260 (З) 10 км    4/1 1000 м средняя 
[Cu hum|Ac trans]
+19.7 +7.8 46 +20  1012.6  -0.8  753  282           
12 12.09.11 270 (З) 10 км    5/3 1000 м средняя 
[Cu hum|Ac trans]
+20.6 +8.5 46 +21  1011.9  -0.7  752  280           
15 12.09.11 250 (З) 10 км    4/0 средняя 
[Ac trans]
+18.8 +9.6 55 +20  1012.2  0.3  753  282           
18 12.09.11 260 (З) 10 км    6/0 средняя 
[Ac trans]
+17.9 +12.5 71 +23  1012.7  0.3  753  282    +20.9       
21 12.09.11 260 (З) 10 км    6/0 средняя 
[Ac trans]
+14.8 +12.4 85 +19  1012.8  753  285           
00 13.09.11 270 (З) 10 км    3/0 средняя 
[Ac trans]
+11.3 +9.9 91 +13  1013.2  0.3  753  290           
03 13.09.11 280 (З) 10 км    3/0 средняя 
[Ac trans]
+12.5 +8.9 79 +12  1013.4  0.3  753  289           
06 13.09.11 230 (ЮЗ) 10 км    3/0 верхняя 
[Ci fib]
+18.7 +11.5 63 +23  1013.4  0.2  754  282  +11.2         
09 13.09.11 270 (З) 10 км    4/0 верхняя 
[Ci fib]
+22.8 +11.7 50 +26  1012.8  -0.5  753  278           
12 13.09.11 240 (ЮЗ) 10 км    6/1 1000 м средняя, верхняя 
[Cu med, cong|Ac trans|Ci fib]
+24.1 +11.9 46 +28  1011.7  -1.1  752  276           
15 13.09.11 250 (З) 10 км    8/1 1000 м средняя, верхняя 
[Cu med, cong|Ac trans|Ci fib]
+22.7 +13.1 55 +28  1010.8  -0.9  752  277           
18 13.09.11 240 (ЮЗ) 10 км    8/1 600 м кучево-дожд., средняя, верхняя 
[Cb calv|Ac trans|Ci fib]
+20.6 +13.8 65 +27  1010.7  -0.2  752  279    +24.5       
21 13.09.11 260 (З) 10 км    4/1 600 м кучево-дожд., средняя 
[Cb calv|Ac trans]
+20.7 +15 70 +29  1010.6  -0.1  751  278           
00 14.09.11 280 (З) 10 км    3/0 средняя 
[Ac trans]
+19.1 +16.9 87 +32  1011.2  0.6  752  279           
03 14.09.11 310 (СЗ) 4000 м  дымка  3/0 средняя 
[Ac trans]
+16.7 +13.1 79 +23  1013  1.7  753  283           
06 14.09.11 340 (С) 10 км    1/0 средняя 
[Ac trans]
+20.7 +13.3 63 +26  1014.3  1.3  754  280  +16.5         
09 14.09.11 300 (СЗ) 10 км    3/0 средняя 
[Ac trans]
+24.4 +12.6 48 +29  1014.7  0.5  755  277           
12 14.09.11 310 (СЗ) 10 км    1/1 1000 м 
[Cu hum]
+26.3 +11.9 41 +30  1014.4  -0.2  754  275           
15 14.09.11 240 (ЮЗ) 10 км    1/0 средняя 
[Ac trans]
+23.6 +13.8 54 +30  1014.5  754  277           
18 14.09.11 тихо ()   4000 м  дымка  ясно 
+18.2 +14.1 77 +25  1015.5  0.8  755  282    +26.5       
21 14.09.11 тихо ()   4000 м  дымка  ясно 
+16.9 +13.2 79 +22  1015.8  0.3  755  284           
00 15.09.11 100 (В) 4000 м  дымка  ясно 
+15.6 +13.2 86 +22  1015.9  755  285           
03 15.09.11 тихо ()   4000 м  местами туман поземный  ясно 
+16.2 +12 76 +20  1015.4  -0.4  755  285           
06 15.09.11 220 (ЮЗ) 10 км    3/0 верхняя 
[Ci fib]
+21.5 +13.5 60 +28  1015.7  0.4  755  279  +15         
09 15.09.11 200 (Ю) 10 км    3/0 верхняя 
[Ci fib]
+26.3 +12.5 42 +31  1014.5  -1  755  275           
12 15.09.11 тихо ()   10 км    8/3 1000 м верхняя 
[Cu hum|Ci fib]
+27.4 +12 38 +31  1013.8  -0.7  754  274           
15 15.09.11 110 (В) 10 км    8/0 средняя, верхняя 
[Ac trans|Ci]
+24.2 +14.5 55 +32  1013.4  -0.5  754  276           
18 15.09.11 тихо ()   10 км    8/0 средняя, верхняя 
[Ac trans|Ci fib]
+19.8 +14.2 70 +27  1013.9  0.4  754  280    +28       
21 15.09.11 тихо ()   10 км    6/0 верхняя 
[Ci fib]
+17.7 +13.9 78 +24  1013.7  -0.3  754  282           
00 16.09.11 тихо ()   10 км    6/0 верхняя 
[Ci]
+17.3 +13.5 78 +23  1013.1  -0.6  753  283           
03 16.09.11 тихо ()   4000 м  дымка  9/0 средняя, верхняя 
[Ac trans|Ci]
+16.1 +13.4 84 +22  1012.8  -0.3  753  284           
06 16.09.11 тихо ()   10 км    9/0 средняя, верхняя 
[Ac trans|Ci fib]
+22.9 +14.8 60 +31  1012.9  0.3  753  277  +16         
09 16.09.11 260 (З) 10 км    4/0 верхняя 
[Ci fib]
+26.9 +14.3 46 +34  1012.2  -0.6  753  273           
12 16.09.11 250 (З) 10 км    5/4 1000 м средняя 
[Cu med, cong|Ac trans]
+27.7 +12.8 40 +33  1011.5  -0.7  752  273           
15 16.09.11 360 (С) 10 км    6/3 1000 м кучево-дожд., средняя 
[Cb calv|Ac trans]
+24.9 +15.8 57 +35  1011.4  -0.1  752  274           
18 16.09.11 350 (С) 10 км    5/0 средняя, верхняя 
[Ac trans|Ci fib]
+18.9 +8.9 52 +19  1013.2  1.6  753  282    +27.7       
21 16.09.11 340 (С) 10 км    6/0 средняя, верхняя 
[Ac trans|Ci fib]
+17.5 +9.5 59 +18  1013.8  0.5  754  284           
00 17.09.11 330 (СЗ) 10 км    5/0 верхняя 
[Ci fib]
+15.3 +8.9 66 +16  1014.6  0.7  754  286           
03 17.09.11 340 (С) 10 км    5/0 средняя, верхняя 
[Ac trans|Ci fib]
+13.4 +8 70 +13  1015.4  0.8  755  289           
06 17.09.11 340 (С) 10 км    ясно 
+17.8 +9 56 +18  1016.3  756  284  +13.4         
09 17.09.11 350 (С) 10 км    3/3 1000 м 
[Cu hum]
+20.9 +5 35 +21  1016.7  0.5  756  282           
12 17.09.11 280 (З) 10 км    5/5 1200 м 
[Cu hum]
+21.8 +3 29 +22  1016.5  -0.2  756  282           
15 17.09.11 320 (СЗ) 10 км    ясно 
+20.2 +1.9 30 +20  1017  0.4  756  283           
18 17.09.11 320 (СЗ) 10 км    ясно 
+16.3 +3.1 41 +17  1018.3  1.2  757  287    +22.7       
21 17.09.11 тихо ()   10 км    ясно 
+11.3 +4.5 63 +11  1019.1  0.7  758  292           
00 18.09.11 тихо ()   10 км    ясно 
+10.1 +4.4 68 +10  1019.4  0.2  758  294           
03 18.09.11 тихо ()   10 км    ясно 
+8.8 +4.9 77 +9  1019.5  0.1  758  295           
06 18.09.11 050 (СВ) 10 км    ясно 
+18.5 +6 44 +20  1019.7  0.5  758  285  +8.3         
09 18.09.11 110 (В) 10 км    1/1 1000 м 
[Cu hum]
+20.4 +3.2 32 +20  1019.6  -0.1  758  284           
12 18.09.11 340 (С) 10 км    3/3 1000 м 
[Cu hum]
+22 +2.3 27 +22  1018.9  -0.6  758  282           
15 18.09.11 030 (СВ) 10 км    1/1 1000 м 
[Cu hum]
+19.5 +4.8 38 +20  1018.9  -0.1  758  284           
18 18.09.11 050 (СВ) 10 км    ясно 
+13.1 +5.2 59 +13  1020.4  1.3  759  291    +22.5       
21 18.09.11 050 (СВ) 10 км    ясно 
+11.7 +5.6 66 +11  1021  0.6  759  292           
00 19.09.11 060 (СВ) 10 км    ясно 
+10.7 +5.2 69 +10  1021.4  0.3  759  294           
03 19.09.11 060 (СВ) 10 км    ясно 
+9.7 +4.5 70 +9  1021.9  0.5  760  295           
06 19.09.11 080 (В) 10 км    ясно 
+16 +6.4 53 +16  1022.6  0.9  760  288  +9.2         
09 19.09.11 090 (В) 10 км    1/1 1000 м 
[Cu hum]
+19.9 +5.4 39 +20  1021.8  -0.7  760  285           
12 19.09.11 090 (В) 10 км    ясно 
+21.4 +5 34 +21  1020.6  -1.2  759  283           
15 19.09.11 070 (В) 10 км    ясно 
+18.7 +4.3 39 +19  1020.4  -0.3  759  285           
18 19.09.11 080 (В) 10 км    ясно 
+15.7 +5.7 51 +15  1021.4  0.9  759  288    +21.4       
21 19.09.11 070 (В) 10 км    ясно 
+13.6 +5.7 59 +13  1021.7  0.2  760  291           
00 20.09.11 080 (В) 10 км    ясно 
+11.7 +7.1 73 +11  1022.3  0.5  760  292           
03 20.09.11 060 (СВ) 10 км    ясно 
+10.1 +5.5 73 +9  1023  0.7  760  295           
06 20.09.11 080 (В) 10 км    ясно 
+16.1 +7 55 +16  1023.8  761  289  +10         
09 20.09.11 080 (В) 10 км    ясно 
+20.8 +5.7 37 +21  1023.3  -0.4  761  284           
12 20.09.11 080 (В) 10 км    ясно 
+21.8 +5.3 34 +22  1022.1  -1.1  760  283           
15 20.09.11 060 (СВ) 10 км    ясно 
+18.5 +5.5 42 +19  1021.9  -0.3  760  286           
18 20.09.11 070 (В) 10 км    ясно 
+14.7 +5.6 54 +15  1022.7  0.7  760  290    +21.9       
21 20.09.11 080 (В) 10 км    ясно 
+13.1 +4.5 56 +13  1022.6  -0.1  760  292           
00 21.09.11 080 (В) 10 км    ясно 
+11.6 +4.3 61 +11  1021.9  -0.8  760  293           
03 21.09.11 060 (СВ) 10 км    3/0 верхняя 
[Ci fib]
+9.3 +4.1 70 +8  1021.7  -0.2  759  295           
06 21.09.11 080 (В) 10 км    3/0 верхняя 
[Ci fib]
+17.1 +5.1 45 +18  1021.6  0.1  760  287  +8.9         
09 21.09.11 100 (В) 10 км    ясно 
+21.3 +4.9 34 +21  1019.9  -1.5  758  283           
12 21.09.11 060 (СВ) 10 км    1/0 верхняя 
[Ci fib]
+23.2 +4.6 30 +23  1017.8  -2  757  280           
15 21.09.11 050 (СВ) 10 км    1/0 верхняя 
[Ci fib]
+19.5 +4.6 37 +20  1017  -0.9  756  284           
18 21.09.11 тихо ()   10 км    ясно 
+14.7 +4.6 51 +15  1017.1  756  288    +23.3       
21 21.09.11 070 (В) 10 км    ясно 
+14 +5.4 56 +14  1016.6  -0.5  756  289           
00 22.09.11 040 (СВ) 10 км    ясно 
+12.5 +4.3 57 +13  1015.9  -0.8  755  290           
03 22.09.11 020 (С) 10 км    3/0 средняя, верхняя 
[Ac trans|Ci fib]
+10.9 +4.4 64 +11  1016.2  0.3  755  292           
06 22.09.11 110 (В) 10 км    1/0 верхняя 
[Ci fib]
+18.3 +7.2 48 +19  1016.4  0.4  756  284  +9.6         
09 22.09.11 080 (В) 10 км    ясно 
+22.8 +4 29 +23  1015.8  -0.5  755  280           
12 22.09.11 070 (В) 10 км    ясно 
+24 +5.3 30 +24  1014.4  -1.2  754  278           
15 22.09.11 080 (В) 10 км    1/0 верхняя 
[Ci fib]
+19.8 +4.7 37 +21  1013.9  -0.6  754  283           
18 22.09.11 060 (СВ) 10 км    3/0 верхняя 
[Ci fib]
+16.1 +5.6 50 +16  1014.2  0.2  754  286    +24.2       
21 22.09.11 070 (В) 10 км    ясно 
+15.4 +8.1 62 +15  1014.1  -0.2  754  286           
00 23.09.11 070 (В) 10 км    ясно 
+14.1 +9 71 +14  1013.7  -0.3  754  287           
03 23.09.11 070 (В) 10 км    4/0 верхняя 
[Ci fib]
+12.6 +8.3 75 +12  1013.8  0.1  754  289           
06 23.09.11 080 (В) 10 км    6/0 верхняя 
[Ci fib]
+16 +9 63 +16  1014.1  0.4  754  285  +12.5         
09 23.09.11 090 (В) 10 км    5/1 1000 м верхняя 
[Cu hum|Ci fib]
+21.5 +11.2 52 +24  1013.6  -0.4  754  279           
12 23.09.11 090 (В) 10 км    5/1 1000 м верхняя 
[Cu hum|Ci fib]
+24.1 +8.9 38 +24  1011.7  -1.8  752  277           
15 23.09.11 100 (В) 10 км    8/0 верхняя 
[Ci]
+20.7 +8.9 47 +21  1011.6  -0.2  752  280           
18 23.09.11 070 (В) 10 км    8/0 верхняя 
[Ci fib]
+17 +8.3 57 +17  1012.1  0.4  752  284    +24.1       
21 23.09.11 070 (В) 10 км    3/0 верхняя 
[Ci fib]
+14.9 +7 59 +14  1012.1  -0.1  752  286           
00 24.09.11 080 (В) 10 км    ясно 
+14.1 +6.7 61 +14  1011.5  -0.6  752  287           
03 24.09.11 080 (В) 10 км    1/0 средняя 
[Ac trans]
+11.8 +6.8 71 +12  1011.6  752  289           
06 24.09.11 080 (В) 10 км    5/0 средняя 
[Ac trans]
+17.2 +10.1 63 +19  1011.7  0.3  752  283  +11.8         
09 24.09.11 110 (В) 10 км    4/4 1000 м 
[Cu med, cong]
+23 +12.3 51 +27  1010.9  -0.6  752  277           
12 24.09.11 110 (В) 10 км    6/5 1000 м средняя 
[Cu med, cong|Ac trans]
+24.3 +10 40 +25  1009.9  -1  751  276           
15 24.09.11 130 (ЮВ) 10 км    3/1 1000 м средняя 
[Cu med, cong|Ac trans]
+19 +11.4 61 +23  1010  751  281           
18 24.09.11 тихо ()   10 км    4/0 верхняя 
[Ci fib]
+17.1 +10.7 66 +19  1011.1  752  283    +24.7       
21 24.09.11 320 (СЗ) 10 км    ясно 
+17.3 +9.5 60 +18  1011  -0.1  752  283           
00 25.09.11 330 (СЗ) 10 км    5/0 средняя 
[Ac trans]
+16.4 +8.5 60 +17  1010.6  -0.4  751  284           
03 25.09.11 300 (СЗ) 10 км  в посл. час ливневой дождь  9/3 1000 м кучево-дожд., средняя 
[Cb calv|Ac trans]
+13.8 +8.8 72 +14  1012.5  1.8  753  287           
06 25.09.11 330 (СЗ) 10 км  {ливн. осадки}  ясно 
+15.3 +6.7 56 +15  1014.6  2.1  754  287  +13.4    0.6     
09 25.09.11 320 (СЗ) 10 км    5/5 1000 м 
[Cu med, cong]
+19 +3.7 36 +19  1015.9  1.4  755  284           
12 25.09.11 320 (СЗ) 10 км    5/5 1000 м 
[Cu med, cong]
+19.6 +1.3 29 +20  1016.5  0.6  756  284           
15 25.09.11 330 (СЗ) 10 км    ясно 
+17.5 -0.3 30 +17  1018.5  1.9  757  287           
18 25.09.11 290 (З) 10 км    ясно 
+13.2 +1.8 46 +14  1020.7  2.1  759  291    +20.2       
21 25.09.11 300 (СЗ) 10 км    ясно 
+12.6 +1.9 48 +13  1021.8  1.1  760  292           
00 26.09.11 310 (СЗ) 10 км    5/0 средняя 
[Ac trans]
+11.7 +2.2 52 +12  1022.1  0.2  760  293           
03 26.09.11 320 (СЗ) 10 км    ясно 
+9.1 +2 61 +9  1022.8  0.6  760  296           
06 26.09.11 340 (С) 10 км    3/0 средняя, верхняя 
[Ac trans|Ci fib]
+13.7 +2.9 48 +13  1024.2  1.6  761  292  +8.9         
09 26.09.11 340 (С) 10 км    3/3 1000 м 
[Sc]
+16.7 +0.8 34 +17  1024.7  0.6  762  289           
12 26.09.11 320 (СЗ) 10 км    3/3 1000 м 
[Sc]
+18.5 +1.7 32 +19  1024.3  -0.4  762  287           
15 26.09.11 350 (С) 10 км    3/0 средняя 
[Ac trans]
+16.4 +2.5 39 +17  1025  0.7  762  289           
18 26.09.11 330 (СЗ) 10 км    3/0 средняя 
[Ac trans]
+10.2 +3.6 64 +10  1026.9  1.6  763  296    +18.5       
21 26.09.11 330 (СЗ) 10 км    ясно 
+9.5 +3.4 66 +10  1027.4  0.6  764  297           
00 27.09.11 тихо ()   10 км    ясно 
+8.3 +3.2 70 +8  1027.5  0.1  764  298           
03 27.09.11 320 (СЗ) 10 км    ясно 
+8.2 +2.8 69 +9  1027.5  764  298           
06 27.09.11 270 (З) 10 км    1/0 средняя 
[Ac trans]
+15.4 +3.6 45 +16  1028.2  0.9  764  291  +6.5         
09 27.09.11 250 (З) 10 км    4/1 1000 м средняя 
[Cu hum|Ac trans]
+19.3 +3.9 36 +20  1027.6  -0.5  764  287           
12 27.09.11 260 (З) 10 км    5/5 1200 м 
[Cu med, cong]
+20.5 +4.4 35 +21  1026.2  -1.3  763  285           
15 27.09.11 260 (З) 10 км    4/0 средняя 
[Ac trans]
+17.7 +5.2 44 +19  1025.9  -0.4  763  288           
18 27.09.11 290 (З) 10 км    3/0 средняя 
[Ac trans]
+15.3 +8.2 63 +16  1026.2  0.2  763  290    +20.5       
21 27.09.11 280 (З) 10 км    3/0 средняя 
[Ac trans]
+13.5 +9.4 76 +14  1025.9  -0.3  763  291           
00 28.09.11 260 (З) 4000 м  дымка  3/0 средняя 
[Ac trans]
+10 +8.7 92 +10  1025  -1  762  295           
03 28.09.11 260 (З) 4000 м  местами туман поземный  3/0 средняя 
[Ac trans]
+10.2 +9.3 94 +10  1024.1  -0.9  761  294           
06 28.09.11 230 (ЮЗ) 4000 м  в посл. час туман  5/3 100 м средняя 
[St|Ac trans]
+14.2 +12.8 91 +19  1023.5  -0.5  761  289  +9.1         
09 28.09.11 240 (ЮЗ) 10 км    ясно 
+21.4 +6.1 37 +21  1021.8  -1.5  760  283           
12 28.09.11 250 (З) 10 км    3/1 1000 м верхняя 
[Cu hum|Ci fib]
+22.5 +4.8 32 +23  1019.5  -2.1  758  281           
15 28.09.11 260 (З) 10 км    3/0 средняя 
[Ac trans]
+19.8 +6 40 +20  1017.7  -1.9  757  283           
18 28.09.11 240 (ЮЗ) 10 км    3/0 средняя 
[Ac trans]
+16.8 +8.7 59 +17  1016.9  -0.8  756  286    +22.5       
21 28.09.11 330 (СЗ) 10 км    6/1 1000 м кучево-дожд., средняя 
[Cb calv|Ac trans]
+16 +9.5 65 +17  1017.2  0.2  756  286           
00 29.09.11 320 (СЗ) 10 км  {ливн. осадки}  6/1 1000 м кучево-дожд., средняя 
[Cb calv|Ac trans]
+13.3 +10.9 85 +16  1016  -1.2  755  288           
03 29.09.11 320 (СЗ) 4000 м  дымка  8/3 1000 м кучево-дожд., средняя 
[Cb calv|Ac trans]
+12.2 +11 92 +15  1014.9  -1.2  754  289           
06 29.09.11 190 (Ю) 4000 м  дымка  9/5 200 м средняя 
[Sc diur, vesp|Ac trans]
+14.4 +11.5 83 +18  1013.8  -1  754  286  +11.7    0.0     
09 29.09.11 290 (З) 10 км    9/4 600 м кучево-дожд., средняя 
[Cb calv|Ac trans]
+15.8 +9.5 66 +16  1012.3  -1.4  753  285           
12 29.09.11 260 (З) 10 км    10/4 600 м кучево-дожд., средняя 
[Cb calv|Ac und]
+15.2 +9.9 71 +16  1010.8  -1.5  752  285           
15 29.09.11 300 (СЗ) 4000 м  слаб. ливневой дождь  10/6 800 м кучево-дожд., средняя 
[Cb calv|Ac As]
+10.7 +7.8 82 +10  1012.2  1.2  752  290           
18 29.09.11 290 (З) 10 км  слаб. ливневой дождь  10/6 900 м кучево-дожд., средняя 
[Cb calv|Ac As]
+9.7 +7.3 85 +10  1012.5  0.4  753  292    +15.9     
21 29.09.11 300 (СЗ) 10 км  {ливн. осадки}  10/3 600 м кучево-дожд., средняя 
[Cb calv|Ac und]
+9.6 +7.5 87 +10  1012.6  0.1  753  292           
00 30.09.11 320 (СЗ) 10 км  {ливн. осадки}  8/0 средняя 
[Ac trans]
+8.7 +7.2 90 +9  1013.2  0.5  753  293           
03 30.09.11 340 (С) 10 км    9/0 средняя 
[Ac trans]
+8.3 +6.8 90 +7  1013.7  0.5  753  294           
06 30.09.11 340 (С) 10 км    8/5 330 м средняя 
[Sc|Ac trans]
+9.8 +7.4 85 +9  1015.1  1.4  755  292  +8.2       
09 30.09.11 340 (С) 10 км    5/5 840 м 
[Sc]
+13.7 +5.6 58 +13  1015.9  755  289           
12 30.09.11 350 (С) 10 км    8/4 1000 м кучево-дожд., средняя 
[Cb calv|Ac trans]
+13.8 +5 55 +13  1016.7  0.7  756  289           
15 30.09.11 340 (С) 10 км    8/1 1000 м средняя 
[Sc|Ac trans]
+12.4 +5.2 61 +13  1017.7  0.9  757  291           
18 30.09.11 330 (СЗ) 10 км    6/0 средняя 
[Ac trans]
+10.5 +5.7 72 +10  1019  1.2  757  293    +15.1       
21 30.09.11 330 (СЗ) 10 км    4/0 средняя 
[Ac trans]
+8.7 +4.9 77 +9  1018.9  -0.1  757  295           
00 01.10.11 310 (СЗ) 10 км    ясно 
+7.4 +4.3 81 +7  1018.4  -0.6  757  296           
03 01.10.11 290 (З) 10 км    ясно 
+5.5 +3.2 85 +6  1017.5  -0.9  756  298           
06 01.10.11 260 (З) 10 км    4/0 средняя, верхняя 
[Ac trans|Ci fib]
+10.3 +3.8 64 +10  1016.4  -1  755  293  +4.9         
09 01.10.11 250 (З) 10 км    5/3 1000 м средняя, верхняя 
[Cu hum|Ac trans|Ci fib]
+14.3 +2.1 44 +13  1013.9  -2.3  754  288           
12 01.10.11 240 (ЮЗ) 10{15}  10 км    8/0 средняя, верхняя 
[Ac trans|Ci fib]
+14.1 +4.5 52 +13  1010.7  -3.2  751  287           
15 01.10.11 250 (З) 12-18{18}  10 км  {ливн. осадки}  9/6 800 м средняя 
[Sc|Ac trans]
+14.6 +7.8 64 +13  1009  -1.6  750  286           
18 01.10.11 240 (ЮЗ) 10-15{18}  10 км  {ливн. осадки}  9/6 600 м средняя 
[Sc|Ac trans]
+15.1 +10.4 74 +16  1005.7  -3.3  748  284    +14.6  0.0     
21 01.10.11 320 (СЗ) 6{17}  10 км  {гроза, ливн. осадки}  5/3 300 м средняя 
[Sc|Ac trans]
+13.8 +9.2 74 +13  1005.6  0.1  748  285           
00 02.10.11 300 (СЗ) 2{17}  10 км  {гроза, ливн. осадки}  4/0 средняя 
[Ac trans]
+10.3 +6.9 79 +10  1007.2  1.4  749  290           
03 02.10.11 270 (З) 10 км    6/3 300 м средняя 
[Sc|Ac trans]
+8.5 +5.6 82 +8  1008.1  0.9  749  292           
Время (UTC), дата Ветер
(°,м/с) 
Видим.   Явления Облачность Т
(°С)
Тd
(°С)
f(%) Тe
(°С)
Pmin
(гПа)
dP
(гПа)
Po
(мм)
O2
(г/м3)
Тmin Tmax R s Состояние
почвы